Wetbulb
52.85 50.79 48.20 48.97 47.41 46.11 44.51 43.60 42.86 42.69 41.75 41.77 44.37 46.09 46.24 46.87 48.14 47.77 47.98 48.14 47.98 48.13 48.40 48.35 47.94 48.60 48.23 48.55 48.64 46.86 45.84 45.01 43.30 45.45 46.33 47.25 47.87 47.89 49.99 48.69 48.81 48.66 48.33
50.11 48.41 47.21 46.64 45.07 44.07 42.86 41.78 41.76 40.78 40.44 39.51 40.31 39.98 40.94 44.90 45.08 43.90 43.04 43.21 43.16 42.64 42.86 43.16 43.54 44.54 43.28 44.09 44.85 44.29 44.24 44.05 42.87 41.43 43.93 44.88 45.60 46.87 45.84 44.30 47.01 48.98 46.69
47.64 45.59 44.02 43.00 41.98 41.18 40.84 39.60 38.76 37.86 37.36 37.10 36.65 36.87 37.35 38.76 40.78 42.06 41.58 41.22 41.34 39.65 39.38 38.46 38.56 39.05 37.23 38.47 41.35 40.25 40.74 41.81 41.30 40.81 39.74 42.04 42.69 42.82 42.31 43.48 43.57 42.66 45.43
46.12 44.18 42.56 41.90 41.16 39.26 38.51 37.59 36.72 35.60 34.29 33.83 33.97 34.29 34.82 35.05 36.09 39.46 39.54 39.10 39.07 39.54 38.47 37.85 37.24 35.95 34.69 35.21 35.55 35.04 36.16 36.70 37.97 38.54 38.65 38.93 39.66 40.53 40.41 38.63 37.28 39.47 39.65
44.06 42.56 40.03 39.68 39.15 37.58 36.09 35.09 34.07 33.07 32.36 31.98 31.83 31.63 32.32 32.79 33.73 34.43 37.37 37.63 38.45 38.33 39.27 38.08 37.56 36.05 34.80 34.49 32.47 31.48 32.76 33.45 34.70 34.86 35.22 34.79 35.11 35.00 35.21 37.12 36.16 36.66 37.40
39.90 38.47 37.86 36.91 36.12 35.59 34.36 34.34 33.39 31.82 30.61 30.25 29.84 29.65 29.53 31.46 32.89 33.52 35.96 35.75 35.43 36.16 35.09 36.61 33.26 32.25 31.06 31.43 31.82 33.00 32.70 31.36 32.59 32.46 32.56 31.40 33.11 34.20 35.90 35.47 35.08 33.88 32.29
37.40 36.67 36.22 36.07 35.21 34.40 34.03 33.07 32.05 31.64 30.72 29.38 29.02 28.82 28.61 29.76 31.74 32.17 34.66 34.46 33.76 34.17 32.67 32.11 32.57 30.87 29.34 29.19 30.52 32.68 33.30 34.09 30.38 31.86 29.68 29.58 29.77 31.69 32.34 32.21 32.48 32.18 31.62
35.81 35.52 35.73 35.36 34.15 33.07 32.29 31.42 30.91 30.87 30.62 30.64 29.66 28.66 27.84 29.22 30.58 31.05 33.08 33.62 33.72 34.01 32.57 31.88 30.13 27.83 27.82 28.05 28.65 29.25 30.70 32.49 30.59 30.38 28.40 28.83 29.98 30.71 30.42 30.51 30.54 31.46 32.99
33.75 33.82 34.18 34.20 32.98 32.20 31.02 31.11 31.26 30.84 30.35 29.53 29.65 29.23 27.41 27.67 29.70 29.95 30.40 30.21 31.74 31.52 29.97 29.40 28.21 26.79 28.52 29.10 27.26 27.15 27.43 27.35 30.04 30.64 32.46 33.65 33.84 34.00 34.50 32.53 29.61 29.07 29.23
33.07 32.92 32.98 32.65 32.00 31.30 32.03 32.20 32.28 31.89 30.81 30.71 29.18 28.72 28.69 27.50 29.28 29.39 28.94 27.19 27.27 29.61 30.10 30.14 29.68 27.78 28.41 28.45 26.51 25.79 23.34 23.82 25.76 27.17 28.74 29.13 31.17 31.44 32.27 32.03 31.78 29.19 29.65
32.68 32.24 32.10 31.86 31.60 31.98 31.83 31.92 31.58 31.32 31.23 30.05 28.72 28.61 28.25 27.39 26.55 28.57 28.83 26.45 25.32 27.49 26.20 26.25 27.00 28.73 28.51 28.77 28.45 25.80 25.61 26.46 26.90 26.75 26.56 26.80 28.04 28.83 29.30 30.14 29.91 28.82 28.53
31.52 30.83 30.83 30.76 31.25 31.83 30.62 30.30 29.77 29.21 28.34 27.78 27.40 26.76 26.28 24.99 25.65 25.59 27.30 27.42 26.80 25.81 24.16 26.28 27.38 28.52 28.39 28.33 27.22 28.11 28.26 28.04 26.54 25.48 25.22 25.61 25.39 25.33 26.70 28.09 29.72 30.73 31.82
30.87 29.92 29.60 29.14 28.40 27.10 25.76 25.84 26.27 27.01 26.50 25.38 24.11 23.59 23.29 23.24 22.83 24.52 25.18 26.24 25.60 24.99 25.40 26.64 29.17 28.19 28.15 26.96 27.80 28.13 26.08 25.49 24.18 22.49 23.47 23.38 24.19 25.95 28.10 28.44 29.72 30.43 31.33
28.35 27.63 26.99 25.56 25.24 26.16 24.97 23.02 22.09 22.31 21.90 22.08 22.92 21.16 20.90 20.89 21.11 22.34 23.50 23.77 24.92 24.62 24.49 27.37 25.68 26.10 24.11 24.21 24.31 25.23 25.44 25.42 24.24 24.16 23.03 24.10 25.95 25.70 25.75 27.33 26.83 27.56 27.36
29.98 29.35 28.33 27.52 25.32 23.65 23.44 23.81 22.20 22.14 21.40 19.55 19.79 20.89 19.24 18.09 20.52 23.43 23.88 23.94 23.36 23.93 23.02 23.12 22.47 21.96 21.78 22.19 22.75 23.15 23.61 23.50 22.61 22.51 22.26 23.26 23.04 23.73 24.00 25.52 25.50 25.74 25.22
28.42 28.18 28.50 28.43 28.21 28.27 25.89 22.93 24.39 24.04 24.09 23.81 23.05 21.85 21.97 23.47 24.29 24.60 25.11 25.74 25.60 25.36 22.67 21.14 20.35 20.36 20.01 19.78 19.77 20.06 21.19 20.93 21.51 21.78 21.79 21.35 21.46 21.99 22.23 23.34 24.02 23.92 23.73
27.33 27.03 27.07 26.57 26.18 25.76 25.38 24.84 23.65 23.36 25.69 24.54 23.26 22.84 24.24 24.28 24.49 24.53 24.30 24.21 24.23 23.40 19.46 18.92 18.71 18.70 18.61 19.06 18.76 18.69 17.82 19.26 20.06 19.83 19.43 20.00 19.94 20.44 19.70 19.95 21.42 21.96 21.93
26.73 26.51 25.46 25.13 24.75 24.46 24.09 23.98 23.88 22.33 21.01 21.13 22.41 21.82 23.22 24.47 24.17 23.88 23.33 21.86 18.37 19.42 18.46 17.82 16.99 17.26 17.02 16.91 17.02 16.94 17.56 17.99 18.00 17.48 18.30 18.75 18.66 18.73 17.96 17.67 18.37 18.48 19.44
25.59 24.83 24.86 24.59 24.21 23.85 23.60 22.97 22.51 21.78 21.00 20.34 19.44 19.22 20.09 23.38 23.29 22.65 22.22 18.06 16.50 16.38 17.08 16.53 16.98 16.86 16.95 17.25 17.26 17.11 16.41 15.63 15.56 16.30 16.66 17.15 16.90 17.65 15.87 16.25 16.71 17.09 18.56
24.25 24.68 24.15 23.53 23.21 22.71 22.36 21.50 20.82 20.45 19.95 19.50 18.47 16.76 18.47 19.63 17.43 17.08 17.97 16.75 16.19 16.36 16.61 16.19 16.65 16.98 16.61 16.58 16.27 15.16 14.18 14.08 14.48 15.53 15.53 15.97 16.59 16.29 14.57 14.44 15.29 16.13 17.64
23.58 23.33 22.69 22.06 21.29 21.25 20.71 19.98 20.11 19.51 18.82 18.42 18.37 18.53 17.84 17.65 16.40 16.34 16.25 15.67 15.24 15.25 14.89 15.11 15.73 15.65 16.00 15.61 14.62 13.55 13.16 13.02 14.51 15.28 15.67 14.97 14.03 12.96 14.63 15.45 16.14 17.15 18.63
23.49 22.87 22.51 21.53 21.46 20.54 20.21 19.74 19.18 18.97 18.58 17.76 17.92 18.40 16.14 16.95 16.12 15.53 15.54 14.69 14.80 15.24 15.50 15.16 15.07 15.21 15.37 15.09 14.35 13.47 13.11 13.57 15.06 14.20 12.84 12.96 13.49 13.81 14.24 14.63 15.40 16.97 18.96
22.58 21.87 21.27 21.04 20.90 19.63 19.77 19.44 18.19 17.74 17.31 16.94 16.82 16.64 16.07 15.07 14.73 14.26 14.42 13.41 13.65 13.78 15.00 15.47 14.82 14.68 15.93 15.41 15.52 16.15 15.48 13.41 13.43 14.41 12.86 12.43 12.85 13.08 13.57 13.95 15.67 17.57 19.55
22.53 21.54 20.80 20.15 19.51 19.00 18.18 17.34 17.51 16.10 16.21 15.75 15.37 15.20 14.62 13.75 13.23 12.58 13.04 12.35 12.22 12.85 14.21 14.23 14.57 14.97 14.62 15.32 17.37 16.05 15.56 15.51 15.49 14.46 14.04 13.28 13.12 14.52 15.64 16.35 17.71 20.16 22.16
21.45 20.37 19.45 18.94 18.35 17.73 17.02 16.32 15.46 15.64 15.27 14.71 13.74 13.90 13.92 12.82 11.88 11.35 11.25 11.27 10.93 11.50 12.25 13.20 14.27 14.28 14.48 15.92 15.15 14.86 15.40 14.76 14.76 15.46 15.79 16.05 15.93 16.79 17.61 18.85 20.84 25.16 29.31
20.25 19.74 19.23 18.79 17.79 17.14 16.39 15.06 13.96 13.71 13.66 13.58 13.06 12.74 12.29 11.06 10.62 9.97 9.87 9.47 9.72 10.42 10.79 12.40 13.37 13.02 14.46 15.05 14.83 15.74 14.15 14.52 15.09 16.72 18.24 19.91 22.34 25.24 28.16 29.91 31.02 31.59 31.61
MSLP
1011.63 1011.69 1011.56 1011.05 1010.78 1010.82 1010.21 1009.77 1009.10 1008.20 1007.12 1007.92 1007.46 1007.01 1005.65 1006.12 1004.17 1004.60 1004.27 1004.14 1004.93 1004.22 1003.80 1004.71 1005.19 1005.51 1007.00 1006.73 1007.29 1008.16 1009.36 1009.24 1008.70 1008.65 1009.41 1008.89 1008.19 1007.95 1008.11 1008.57 1008.93 1008.88 1009.18
1012.80 1012.50 1012.22 1011.84 1011.54 1011.59 1011.40 1010.98 1010.50 1009.84 1009.73 1009.44 1009.47 1009.30 1009.02 1007.50 1008.04 1007.36 1005.50 1006.49 1006.92 1006.44 1006.59 1006.55 1007.06 1007.72 1007.23 1008.01 1008.78 1009.38 1009.46 1009.80 1010.22 1010.17 1009.17 1008.54 1008.77 1008.80 1009.11 1009.55 1009.87 1009.54 1009.29
1013.63 1013.36 1013.19 1012.86 1012.72 1012.59 1012.58 1012.28 1012.12 1011.63 1011.35 1010.58 1011.45 1010.35 1011.26 1011.02 1009.24 1008.80 1008.84 1008.79 1009.38 1009.33 1008.45 1009.09 1009.87 1009.29 1009.49 1010.00 1009.85 1010.20 1010.58 1010.53 1010.60 1010.63 1009.34 1009.21 1009.88 1010.14 1010.17 1010.60 1010.58 1010.57 1010.03
1014.31 1014.23 1014.13 1013.83 1013.79 1013.76 1013.80 1013.49 1013.27 1013.02 1012.92 1012.97 1012.68 1012.21 1012.71 1011.55 1010.86 1011.01 1010.99 1010.44 1010.16 1010.44 1010.72 1011.21 1011.88 1011.33 1011.27 1011.28 1011.32 1011.65 1011.84 1011.35 1010.47 1010.62 1010.68 1010.59 1011.21 1011.51 1011.52 1011.72 1011.40 1011.33 1011.01
1015.15 1015.22 1015.33 1015.13 1014.97 1015.07 1014.84 1015.16 1014.71 1014.47 1014.70 1014.64 1013.90 1013.39 1013.31 1013.13 1013.72 1013.49 1012.71 1012.20 1011.37 1011.80 1012.18 1012.95 1012.90 1012.71 1013.11 1013.02 1013.15 1012.98 1012.30 1012.21 1011.86 1012.13 1012.41 1012.62 1012.69 1012.86 1012.80 1012.54 1012.14 1011.85 1011.62
1016.49 1016.63 1016.72 1016.48 1016.29 1016.32 1016.17 1016.17 1015.92 1015.83 1015.90 1015.65 1015.62 1014.69 1015.14 1015.46 1015.10 1014.26 1013.75 1013.60 1013.52 1013.85 1013.93 1014.33 1014.68 1014.85 1015.24 1015.24 1014.74 1013.96 1013.47 1013.35 1013.43 1013.28 1013.42 1013.39 1013.38 1013.40 1013.27 1012.83 1012.55 1012.48 1011.54
1017.65 1017.89 1017.97 1017.79 1017.55 1017.53 1017.30 1017.73 1017.07 1017.04 1017.05 1016.88 1017.19 1016.24 1016.13 1016.41 1016.07 1015.59 1014.97 1014.54 1014.50 1014.53 1014.93 1015.32 1015.37 1016.12 1016.13 1015.89 1015.25 1014.46 1014.18 1014.06 1013.89 1013.91 1014.42 1014.39 1014.13 1013.79 1013.55 1013.29 1012.91 1012.47 1011.69
1018.65 1018.89 1018.94 1018.87 1018.81 1018.80 1018.70 1018.65 1018.51 1018.26 1017.95 1017.79 1018.12 1017.44 1017.15 1017.52 1017.02 1016.34 1015.72 1015.38 1015.10 1015.01 1015.51 1016.34 1017.08 1017.38 1017.17 1016.47 1015.64 1015.10 1014.80 1014.54 1014.59 1014.48 1014.41 1014.26 1013.69 1013.48 1013.26 1012.88 1012.21 1011.72 1011.15
1019.76 1019.92 1020.01 1020.05 1019.95 1019.96 1019.85 1019.78 1019.27 1019.40 1019.17 1018.74 1018.85 1018.34 1018.61 1018.80 1018.45 1017.95 1017.07 1016.50 1015.91 1015.73 1016.80 1017.59 1017.52 1017.22 1016.86 1016.42 1015.83 1015.37 1015.24 1015.08 1014.86 1014.48 1014.31 1013.83 1013.42 1013.05 1012.53 1012.21 1011.95 1011.32 1010.68
1020.93 1021.02 1021.15 1021.15 1021.07 1020.93 1020.76 1020.44 1020.01 1019.91 1019.48 1019.50 1019.84 1019.59 1019.67 1019.66 1019.52 1019.08 1018.55 1018.23 1017.47 1016.98 1017.42 1017.56 1017.75 1017.73 1017.17 1016.54 1016.18 1016.07 1015.70 1015.69 1015.15 1014.52 1014.13 1013.99 1013.47 1013.00 1012.70 1012.24 1011.86 1011.09 1010.45
1022.06 1022.03 1022.11 1022.18 1021.96 1021.77 1021.46 1021.05 1020.76 1020.50 1020.40 1020.44 1020.61 1020.70 1020.52 1020.85 1020.54 1020.05 1019.52 1019.38 1019.16 1018.43 1018.43 1018.37 1018.34 1018.00 1017.65 1017.17 1016.86 1016.71 1016.51 1016.04 1015.52 1015.07 1014.63 1014.07 1013.39 1013.08 1012.77 1012.43 1012.04 1011.24 1010.53
1023.13 1023.08 1023.05 1022.96 1022.69 1022.49 1022.31 1022.15 1022.06 1021.86 1021.72 1021.75 1021.83 1021.94 1021.93 1022.22 1021.93 1021.44 1020.83 1020.60 1020.30 1019.67 1019.71 1019.39 1018.97 1018.39 1018.01 1017.58 1017.25 1016.81 1016.48 1016.09 1015.75 1015.27 1014.76 1014.18 1013.77 1013.10 1012.28 1011.72 1011.22 1010.58 1009.89
1023.81 1023.74 1023.79 1023.87 1023.93 1024.08 1023.96 1023.77 1023.60 1023.44 1023.11 1023.14 1023.36 1023.33 1023.39 1023.47 1023.02 1022.63 1022.07 1021.55 1021.18 1020.79 1020.39 1019.83 1019.14 1018.64 1018.25 1017.94 1017.41 1016.90 1016.44 1016.06 1015.76 1015.39 1014.96 1014.57 1014.10 1013.39 1012.48 1011.60 1010.65 1009.97 1009.07
1024.44 1024.56 1024.84 1024.99 1025.16 1025.18 1025.36 1025.57 1025.48 1025.27 1024.90 1024.85 1024.63 1024.69 1024.79 1024.41 1023.76 1023.31 1022.80 1022.31 1021.79 1021.33 1020.77 1019.99 1019.73 1019.38 1018.97 1018.26 1017.65 1017.29 1016.88 1016.75 1016.63 1016.15 1015.59 1014.76 1014.00 1013.26 1012.59 1011.80 1011.09 1010.19 1009.16
1024.84 1024.90 1025.10 1025.31 1025.67 1026.05 1026.27 1026.40 1026.75 1026.63 1026.47 1026.46 1026.36 1025.98 1025.62 1025.12 1024.76 1024.26 1023.56 1022.78 1022.28 1021.76 1020.99 1020.57 1020.20 1019.90 1019.21 1019.14 1018.76 1018.27 1017.84 1017.48 1017.06 1016.65 1015.80 1014.88 1014.15 1013.35 1012.56 1011.87 1011.11 1010.10 1009.16
1025.47 1025.58 1025.57 1025.64 1025.77 1025.83 1026.43 1027.14 1027.34 1027.09 1026.88 1026.81 1026.82 1026.54 1026.25 1025.69 1025.11 1024.40 1023.78 1022.91 1022.38 1022.03 1021.70 1021.56 1021.28 1020.74 1020.35 1019.80 1019.27 1018.78 1018.25 1017.78 1017.34 1016.55 1015.84 1015.08 1014.31 1013.37 1012.26 1011.41 1010.79 1009.99 1008.95
1026.55 1026.68 1026.74 1026.83 1026.87 1026.84 1026.97 1027.11 1027.08 1027.36 1026.87 1026.87 1027.06 1027.02 1026.30 1025.78 1025.23 1024.53 1023.98 1023.60 1023.15 1022.67 1022.50 1022.22 1021.79 1021.43 1021.05 1020.57 1019.95 1019.23 1018.58 1018.08 1017.44 1016.61 1015.57 1014.64 1013.79 1013.38 1012.63 1011.54 1010.76 1009.89 1008.73
1027.71 1027.79 1027.81 1027.84 1027.80 1027.76 1027.72 1027.65 1027.65 1027.60 1027.43 1027.43 1027.68 1027.62 1026.87 1025.97 1025.53 1025.16 1024.75 1024.31 1023.76 1023.39 1023.30 1022.90 1022.43 1021.95 1021.32 1020.56 1019.89 1019.23 1018.42 1017.77 1017.24 1016.61 1015.88 1015.25 1014.63 1013.79 1012.83 1012.08 1010.87 1009.97 1008.94
1028.48 1028.58 1028.69 1028.68 1028.66 1028.64 1028.54 1028.53 1028.54 1028.46 1028.28 1028.21 1028.30 1028.12 1027.70 1026.68 1026.25 1026.06 1025.80 1025.50 1024.95 1024.33 1023.78 1023.25 1022.71 1022.15 1021.65 1021.15 1020.64 1020.13 1019.40 1018.69 1017.98 1017.05 1016.20 1015.36 1014.64 1013.86 1012.74 1011.95 1010.84 1009.79 1008.74
1029.57 1029.59 1029.55 1029.60 1029.65 1029.61 1029.63 1029.64 1029.55 1029.44 1029.36 1029.24 1029.24 1029.35 1028.77 1027.86 1027.33 1026.85 1026.43 1026.28 1025.79 1025.28 1024.92 1024.38 1023.70 1023.17 1022.54 1021.87 1021.12 1020.37 1019.52 1018.70 1017.70 1016.74 1015.88 1015.07 1014.27 1013.59 1012.61 1011.53 1010.50 1009.33 1007.95
1030.46 1030.61 1030.71 1030.78 1030.72 1030.79 1030.77 1030.69 1030.65 1030.63 1030.55 1030.51 1030.40 1030.33 1029.82 1029.15 1028.74 1028.21 1027.60 1027.04 1026.48 1026.03 1025.70 1024.89 1024.03 1023.28 1022.66 1021.92 1021.18 1020.31 1019.36 1018.39 1017.42 1016.40 1015.46 1014.71 1014.01 1013.00 1012.08 1010.99 1009.82 1008.66 1007.46
1031.30 1031.42 1031.51 1031.67 1031.83 1031.86 1031.82 1031.98 1031.96 1031.84 1031.74 1031.57 1031.16 1030.92 1030.53 1030.11 1029.58 1028.93 1028.43 1028.04 1027.44 1026.92 1026.09 1025.17 1024.29 1023.50 1022.74 1021.92 1021.08 1020.09 1019.03 1017.97 1016.94 1016.19 1015.27 1014.32 1013.43 1012.41 1011.36 1010.22 1009.03 1007.78 1006.48
1032.26 1032.44 1032.71 1032.81 1032.79 1032.89 1033.12 1033.10 1033.07 1032.89 1032.70 1032.48 1032.22 1031.70 1031.24 1030.74 1030.40 1029.95 1029.27 1028.69 1027.81 1027.01 1026.15 1025.34 1024.49 1023.56 1022.74 1022.00 1021.05 1019.97 1018.94 1018.10 1017.08 1016.13 1014.95 1013.74 1012.66 1011.61 1010.62 1009.38 1008.10 1006.73 1005.47
1033.37 1033.58 1033.58 1033.75 1034.08 1034.13 1034.18 1034.16 1034.00 1033.82 1033.65 1033.37 1033.07 1032.76 1032.20 1031.82 1031.43 1030.83 1030.09 1029.36 1028.49 1027.55 1026.58 1025.72 1024.74 1023.76 1022.79 1021.61 1020.52 1019.93 1018.94 1017.86 1016.72 1015.53 1014.50 1013.14 1011.74 1010.42 1009.37 1008.21 1006.95 1005.68 1004.55
1034.40 1034.57 1034.87 1035.17 1035.27 1035.26 1035.18 1035.11 1035.13 1034.79 1034.46 1034.25 1034.11 1033.71 1033.25 1032.83 1032.27 1031.61 1030.86 1030.04 1029.16 1028.05 1026.99 1025.98 1024.99 1023.99 1022.75 1021.51 1020.59 1019.46 1018.25 1017.05 1015.79 1014.55 1013.18 1011.90 1010.53 1009.19 1008.16 1007.04 1005.75 1004.55 1003.42
1035.52 1035.83 1036.02 1036.07 1036.15 1036.12 1036.04 1035.97 1035.93 1035.76 1035.52 1035.30 1035.02 1034.63 1034.22 1033.77 1033.20 1032.51 1031.66 1030.72 1029.63 1028.52 1027.50 1026.29 1025.23 1024.16 1022.71 1021.52 1020.38 1019.05 1017.76 1016.27 1014.79 1013.27 1011.92 1010.42 1009.08 1007.63 1006.33 1005.43 1004.56 1003.80 1003.11
Wind_Speed
9 9 9 9 11 10 11 13 14 16 19 20 17 17 19 16 16 14 11 17 11 11 12 13 13 12 7 6 8 5 2 3 4 3 3 6 7 6 7 10 8 8 3
10 9 9 10 11 11 12 13 14 16 17 17 16 17 19 18 13 14 22 20 16 17 16 17 16 10 13 11 7 7 6 5 3 5 3 7 9 10 9 9 8 8 8
8 8 9 10 10 11 13 15 15 16 16 18 16 20 18 14 19 18 16 17 16 17 18 18 16 16 15 10 10 9 8 6 4 4 6 7 6 9 10 7 8 9 9
8 8 8 9 11 11 11 13 14 16 16 16 17 16 16 19 21 17 16 16 15 14 14 14 13 15 15 14 13 12 9 7 9 8 5 5 6 6 5 6 8 6 8
10 10 11 11 12 13 14 13 15 16 15 15 16 17 17 17 14 15 14 15 16 15 13 12 14 20 24 19 9 9 10 8 6 6 7 5 6 6 7 5 8 10 11
10 11 11 11 11 11 11 12 13 15 15 16 15 17 16 11 26 26 14 13 14 12 12 9 12 18 18 18 16 14 8 5 4 3 3 4 6 7 6 6 7 8 8
11 10 10 10 10 11 12 11 14 13 13 16 14 15 17 16 28 27 16 9 9 10 12 11 11 12 16 13 13 12 11 12 5 5 7 7 8 9 9 8 8 9 10
10 10 10 10 11 12 12 13 13 11 13 12 12 15 16 16 28 29 15 8 7 10 12 11 11 10 12 12 10 9 8 8 12 9 8 8 8 9 9 10 11 11 8
12 11 11 11 11 12 13 11 10 8 8 11 11 14 15 16 29 28 17 13 12 12 12 12 12 13 21 21 11 11 11 11 14 19 17 18 16 18 13 8 8 8 9
11 11 12 12 12 11 9 7 7 8 11 8 10 13 22 15 27 27 21 10 13 10 11 12 20 18 21 21 12 11 11 11 12 12 10 12 11 12 16 10 10 9 9
12 13 12 11 10 9 8 7 8 9 8 11 13 13 14 18 18 27 26 12 11 9 9 9 9 21 21 19 16 9 10 11 10 8 8 8 8 8 8 9 11 9 10
12 12 11 11 10 9 11 11 11 10 11 11 11 10 11 13 23 24 25 22 21 10 9 8 9 20 20 18 11 16 16 8 6 7 8 8 9 10 10 11 13 11 11
10 10 12 12 12 13 13 13 10 11 10 10 9 10 9 9 10 23 22 22 20 10 9 15 16 18 18 10 17 17 10 7 7 8 8 9 8 9 12 12 12 13 13
10 12 11 12 12 11 9 9 9 9 9 9 9 9 8 9 11 11 10 9 15 11 12 8 8 10 9 9 10 11 9 8 9 8 9 9 8 9 10 9 10 11 11
8 9 8 7 8 9 9 7 7 8 10 8 8 8 8 9 10 16 14 8 8 10 6 5 7 9 9 9 8 9 8 8 8 8 9 9 10 10 9 9 10 10 10
9 8 8 8 8 7 6 6 11 11 17 18 19 12 6 15 19 21 21 20 22 20 8 8 8 9 9 10 10 9 9 10 9 10 9 9 10 10 11 11 10 10 11
10 10 8 9 8 8 7 7 7 3 10 20 21 20 20 18 21 23 25 21 20 15 8 9 9 9 10 9 10 10 10 9 11 9 10 10 11 11 13 12 11 11 12
10 13 8 7 7 6 7 7 7 7 7 7 15 19 22 22 22 24 24 17 10 11 9 9 10 10 10 11 11 11 11 12 11 11 11 10 10 11 11 12 11 12 12
8 8 7 7 7 8 8 9 8 8 8 9 9 13 16 22 23 22 20 9 10 11 11 11 11 11 11 11 10 10 11 11 11 10 10 10 10 10 12 11 12 16 16
9 12 10 8 8 9 9 8 9 9 9 9 9 12 12 11 10 11 11 11 10 10 10 10 10 9 10 10 10 10 11 11 11 10 11 10 10 10 12 13 12 12 13
7 8 10 9 9 9 8 10 9 9 9 9 8 9 15 10 11 11 11 11 11 11 11 11 11 10 10 10 11 11 12 12 12 12 11 12 12 12 11 11 12 12 12
8 8 9 9 8 9 9 9 9 9 9 9 9 10 13 9 10 11 12 11 11 11 10 11 11 10 10 11 12 12 13 13 12 13 14 13 12 12 12 12 12 12 12
9 9 9 8 9 10 9 8 8 9 9 10 10 10 11 10 11 12 12 12 12 12 11 11 11 11 10 12 12 11 12 14 14 13 15 14 13 12 11 12 12 12 11
9 9 9 9 8 8 8 8 9 10 10 9 10 10 11 11 11 13 13 13 13 13 12 12 11 15 15 14 11 12 13 13 13 14 17 14 14 14 12 12 12 14 13
9 9 9 8 8 8 8 8 9 9 10 10 10 10 10 11 12 12 13 13 13 13 15 14 12 17 19 20 19 22 21 23 19 19 12 14 16 18 14 12 13 12 12
9 9 7 7 7 7 8 8 9 9 10 9 9 10 10 11 11 12 13 15 14 14 17 13 16 22 22 17 22 25 25 24 21 23 15 11 11 11 10 10 11 6 7
Wind_Direction
18 14 21 4 35 20 28 28 22 33 55 33 17 24 27 25 39 41 69 55 42 41 69 70 66 77 97 83 78 70 83 16 19 358 326 348 8 18 23 21 359 325 114
12 13 19 33 35 27 33 40 37 41 41 50 31 38 19 43 45 27 49 57 18 44 39 48 53 46 50 41 56 56 56 27 1 315 328 14 14 13 25 10 342 350 356
8 19 33 46 40 42 37 41 39 39 39 50 39 42 30 13 33 45 53 51 48 40 44 41 35 41 38 19 46 37 32 20 349 334 358 18 7 6 0 339 1 350 340
6 32 36 43 48 50 50 49 50 48 44 41 41 46 34 27 27 31 35 53 51 53 51 50 42 46 41 28 34 22 10 360 11 7 351 5 12 354 325 346 337 338 329
21 31 40 43 51 54 56 45 51 52 48 42 43 40 34 33 22 21 32 35 42 44 45 56 49 48 38 34 21 4 9 1 3 5 351 357 339 334 339 332 315 317 314
36 37 37 49 55 54 55 49 57 55 50 49 39 46 40 31 21 20 32 42 43 44 42 54 70 42 27 15 6 347 338 346 324 324 326 316 304 305 306 325 316 308 312
41 39 39 39 48 46 45 44 46 54 55 53 43 45 45 31 25 17 7 53 53 57 56 29 30 43 20 7 351 353 0 352 10 347 11 353 343 342 336 312 300 297 290
54 48 40 40 46 51 52 51 48 43 41 46 43 44 45 33 28 17 7 18 51 58 58 44 40 34 16 10 357 3 355 6 15 4 349 319 304 295 279 276 280 280 279
56 52 48 48 50 50 49 48 48 44 61 58 40 53 49 38 33 24 20 11 24 45 71 61 41 21 9 9 2 357 15 2 353 340 323 316 335 329 313 297 287 283 281
56 54 49 47 46 45 40 36 44 42 48 56 59 54 42 41 30 31 25 21 7 27 23 17 29 12 9 7 2 12 356 348 335 334 344 330 331 326 329 332 329 316 302
62 62 60 58 53 48 44 40 44 48 49 53 45 38 41 37 25 22 24 22 3 15 14 10 4 4 5 5 14 0 349 333 327 336 322 321 325 327 328 323 316 309 306
66 61 52 46 37 36 42 47 41 40 44 39 40 37 37 26 21 17 15 23 10 13 3 345 338 1 359 0 3 353 347 337 334 335 330 335 335 329 321 315 308 301 293
69 64 64 59 55 45 37 34 27 29 33 41 34 25 23 17 13 12 9 10 9 1 349 331 351 359 355 356 356 0 357 353 348 340 340 332 320 311 312 313 312 309 302
75 77 68 59 54 55 60 46 40 28 32 27 24 31 14 11 8 6 2 355 355 352 337 340 356 358 344 352 355 358 354 353 341 333 326 313 311 319 314 312 311 314 308
74 82 86 93 92 79 63 57 61 60 58 42 28 19 15 12 7 6 359 353 357 343 330 359 1 357 358 354 350 348 345 344 338 333 319 321 321 316 317 316 311 307 301
67 54 46 48 42 55 96 90 74 75 67 57 46 29 11 17 13 12 10 12 12 5 8 2 357 356 351 347 345 341 344 340 334 326 326 321 317 317 318 320 315 310 305
59 54 47 45 44 41 42 36 46 113 75 54 35 26 13 19 18 17 15 12 8 10 11 0 356 352 345 341 339 338 334 332 325 326 326 326 330 321 323 319 314 311 307
63 57 54 44 43 41 37 33 35 30 23 28 31 18 8 18 18 16 16 7 4 8 5 355 350 346 342 341 339 338 335 336 335 329 323 318 318 311 313 308 309 307 302
57 57 53 49 45 40 39 37 29 26 25 25 21 13 1 10 14 13 13 10 360 356 356 353 350 345 342 338 333 327 326 322 317 313 311 312 309 307 307 304 301 300 298
49 46 49 47 43 41 36 36 32 28 23 20 29 12 355 0 5 6 8 5 357 355 349 343 339 334 331 328 328 326 321 316 314 313 311 308 309 311 303 301 298 298 297
64 61 54 50 40 41 35 33 28 25 25 20 19 18 4 7 3 359 357 359 354 353 343 340 334 337 330 332 329 324 318 315 312 309 314 315 310 304 299 295 293 291 289
59 57 53 51 46 40 41 35 26 22 23 16 12 10 8 8 3 359 357 354 347 344 339 335 334 332 333 331 327 319 314 312 317 319 311 308 305 300 297 294 293 290 290
62 58 53 43 43 39 36 32 31 25 22 19 9 9 9 6 2 356 352 347 346 342 340 338 332 330 331 327 318 313 326 322 312 311 307 304 301 296 292 289 289 293 293
56 52 50 53 39 44 33 29 24 24 22 19 13 8 7 2 357 351 353 345 343 340 339 337 332 332 330 326 331 331 318 315 311 305 301 294 291 292 287 285 285 286 286
56 56 52 49 39 36 33 34 22 19 19 18 11 5 2 358 357 351 350 346 341 339 339 336 336 335 333 334 336 330 328 322 315 307 299 288 280 281 278 278 279 284 293
57 53 50 49 44 38 34 30 28 16 15 11 9 3 0 358 355 349 350 345 341 341 339 339 339 338 338 343 339 338 334 331 329 325 316 295 290 289 287 292 304 317 324